Regional Weather Roundup
Issued by NWS

Home | Current Version | Previous Version | Graphics & Text | Print | Product List | Glossary On
Versions: 1 2 3 4 5 6 7 8 9 10 11 12 13 14 15 16 17 18 19 20 21 22 23 24 25 26 27 28 29 30 31 32 33 34 35 36 37 38 39 40 41 42 43 44 45 46 47 48 49 50
000
ASUS43 KMPX 301801
RWRMN
WEATHER ROUNDUP FOR MINNESOTA
NATIONAL WEATHER SERVICE TWIN CITIES/CHANHASSEN MN
100 PM CDT TUE JUN 30 2015


NOTE: "FAIR" INDICATES FEW OR NO CLOUDS BELOW 12,000 FEET WITH NO
SIGNIFICANT WEATHER AND/OR OBSTRUCTIONS TO VISIBILITY. N/A MEANS
CURRENT SKY AND/OR WEATHER CONDITIONS ARE NOT AVAILABLE.

MNZ060>063-068>070-301900-
   Twin Cities Metro

CITY           SKY/WX    TMP DP  RH WIND       PRES   REMARKS
TWIN CITIES    MOSUNNY   72  58  61 N9        29.94S
6HR MIN TEMP:  63; 6HR MAX TEMP:  73;

ST PAUL        PTSUNNY   73  58  59 N6        29.94S
CRYSTAL        MOSUNNY   73  58  59 VRB6      29.93F
BLAINE         PTSUNNY   73  57  56 N5        29.95
LAKEVILLE      MOSUNNY   70  61  73 E8        29.94S
EDEN PRAIRIE   SUNNY     75  60  59 NE9       29.93S
6HR MIN TEMP:  63; 6HR MAX TEMP:  75;

SOUTH ST PAUL  PTSUNNY   72  58  59 E6        29.94S
LAKE ELMO      PTSUNNY   72  57  60 CALM      29.95S
$$
MNZ001>005-007-008-013>017-022>024-027-028-301900-
   Northwest Minnesota

CITY           SKY/WX    TMP DP  RH WIND       PRES   REMARKS
BEMIDJI        PTSUNNY   70  55  59 NE6       29.97S
HALLOCK        CLOUDY    72  63  73 S5        29.94F
ROSEAU         PTSUNNY   72  59  64 NE3       29.97F
WARROAD        PTSUNNY   66  57  72 E8        29.98F
THIEF RVR FALL CLOUDY    70  57  64 CALM      29.97S
CROOKSTON      CLOUDY    72  61  68 CALM      29.96S
FOSSTON        PTSUNNY   72  61  68 CALM      29.97F
DETROIT LAKES  PTSUNNY   72  54  53 NW5       29.97F
MOORHEAD       PTSUNNY   73  57  56 CALM      29.95S
PARK RAPIDS    MOSUNNY   73  52  47 VRB5      29.96S
MAHNOMEN       FAIR      71  57  61 NE3       29.96S
$$
MNZ006-009>011-018-025>026-301900-
   North Central Minnesota

CITY           SKY/WX    TMP DP  RH WIND       PRES   REMARKS
BAUDETTE       PTSUNNY   68  51  54 E6        29.97F
FLAG ISLAND    PTSUNNY   66  52  59 CALM      29.98S
INTL FALLS     MOSUNNY   66  49  54 NE9       29.99S
6HR MIN TEMP:  55; 6HR MAX TEMP:  67;

WASKISH        PTSUNNY   72  55  56 N3        29.97F
BIG FORK       MOSUNNY   70  52  52 E3        29.98F
LONGVILLE      MOSUNNY   70  55  60 CALM      29.97S
GRAND RAPIDS   MOSUNNY   68  52  56 N5        29.97F
CRANE LAKE     SUNNY     63  46  55 VRB2      30.00S
ORR            SUNNY     64  48  55 CALM      29.96F
COOK           SUNNY     64  48  55 NE3       29.98F
WALKER         FAIR      70  58  65 E3        29.97S
$$
MNZ012-019>021-037-301900-
   Northeast Minnesota

CITY           SKY/WX    TMP DP  RH WIND       PRES   REMARKS
DULUTH         PTSUNNY   61  47  59 SE10      29.98F
6HR MIN TEMP:  55; 6HR MAX TEMP:  62; 6HR PCP: TRACE;

ELY            SUNNY     64  45  48 N5        29.98F
HIBBING        SUNNY     67  50  54 CALM      29.97F
EVELETH        SUNNY     64  46  52 CALM      29.99S
DULUTH HARBOR  SUNNY     59  50  72 NE9       30.00S
SILVER BAY     SUNNY     61  46  59 E7        29.98S
GRAND MARAIS     N/A     52  43  71 SW3       30.00S
G MARAIS ARPRT MOSUNNY   57  45  62 SE5       29.99S
$$
MNZ029>031-032-039>041-046>048-054>057-064-301900-
   West Central Minnesota

CITY           SKY/WX    TMP DP  RH WIND       PRES   REMARKS
FERGUS FALLS   CLOUDY    72  55  56 CALM      29.94S
WHEATON        CLOUDY    66  59  77 SE5       29.96S
MORRIS         CLOUDY    72  57  60 E7        29.94F
ALEXANDRIA     PTSUNNY   73  56  54 MISG      29.97F
ELBOW LAKE     FAIR      72  57  58 E7        29.95F
WADENA         MOSUNNY   73  55  53 N5        29.96S
GLENWOOD       CLOUDY    73  57  56 NE5       29.96F
APPLETON       CLOUDY    72  59  64 SE5       29.94S
BENSON         CLOUDY    72  55  56 SE5       29.94F
ORTONVILLE     CLOUDY    70  61  73 SE5       29.95R
MADISON        CLOUDY    70  59  68 SE6       29.95S
WILLMAR        FAIR      73  57  56 NE5       29.96S
$$
MNZ033>034-036-042>043-049>051-058-059-301900-
   Central Minnesota

CITY           SKY/WX    TMP DP  RH WIND       PRES   REMARKS
ST CLOUD       MOSUNNY   73  57  57 VRB3      29.95S
6HR MIN TEMP:  59; 6HR MAX TEMP:  74;

SAUK CENTRE    FAIR      72  57  58 CALM      29.96F
PAYNESVILLE    PTSUNNY   71  55  55 NE6       29.96S
AITKIN         MOSUNNY   72  55  56 NE3       29.95S
PINE RIVER       N/A     73  55  53 S3        29.99S
BRAINERD       MOSUNNY   73  52  47 N7        29.96S
STAPLES        PTSUNNY   72  54  53 CALM      29.96S
LONG PRAIRIE   FAIR      72  55  56 CALM      29.97R
LITTLE FALLS   MOSUNNY   73  54  49 E3        29.96R
LITCHFIELD     MOSUNNY   75  59  57 E8        29.95F
BUFFALO        SUNNY     73  56  55 E3        29.96S
MAPLE LAKE     MOSUNNY   75  60  59 NE3       29.97R
$$
MNZ037-044-045-052-053-301900-
   East Central Minnesota

CITY           SKY/WX    TMP DP  RH WIND       PRES   REMARKS
PRINCETON      MOSUNNY   72  59  64 E6        29.96R
MORA           MOSUNNY   70  55  60 NE3       29.97S
CAMBRIDGE      MOSUNNY   72  57  60 CALM      29.94S
RUSH CITY      PTSUNNY   69  59  70 CALM      29.96S
MOOSE LAKE     PTSUNNY   64  59  82 CALM      29.96S
HINCKLEY       MOCLDY    68  55  64 N8        29.96S
CLOQUET        MOSUNNY   63  52  67 E3        29.98S
MCGREGOR       MOSUNNY   70  54  56 CALM      29.97S
$$
MNZ071>073-080-081-089-090-097-098-301900-
   Southwest Minnesota

CITY           SKY/WX    TMP DP  RH WIND       PRES   REMARKS
MONTEVIDEO     CLOUDY    72  61  68 SE5       29.95F
GRANITE FALLS  CLOUDY    71  60  67 NE5       29.96S
CANBY          CLOUDY    69  62  78 E7        29.96F
MARSHALL       PTSUNNY   70  59  68 E7          N/A
REDWOOD FALLS  PTSUNNY   73  59  61 E6        29.94F
OLIVIA         PTSUNNY   72  55  56 E3        29.94F
PIPESTONE      PTSUNNY   75  63  64 S3        29.96S
WINDOM         PTSUNNY   72  61  68 CALM      29.96S
WORTHINGTON    MOSUNNY   72  63  73 N3        29.96S
JACKSON        MOSUNNY   72  63  73 N7        29.96S
TRACY          PTSUNNY   71  63  75 E5        29.96F
SLAYTON        MOSUNNY   71  63  75 CALM      29.98S
$$
MNZ065>067-074>077-082>085-091>093-301900-
   South Central Minnesota

CITY           SKY/WX    TMP DP  RH WIND       PRES   REMARKS
MANKATO        PTSUNNY   73  57  56 NE9       29.94S
NEW ULM        PTSUNNY   73  54  49 NE7       29.94S
ST JAMES       MOSUNNY   73  63  68 N8        29.95S
FAIRMONT       MOSUNNY   73  61  64 NE7       29.93S
GLENCOE        SUNNY     75  61  62 N7        29.94S
FARIBAULT      MOSUNNY   73  61  64 N8        29.94S
OWATONNA       SUNNY     73  59  60 N10       29.93S
WASECA         MOSUNNY   72  59  64 N10       29.94S
ALBERT LEA     MOSUNNY   75  61  60 NE8       29.92F
$$
MNZ078>079-086>088-094>096-301900-
   Southeast Minnesota

CITY           SKY/WX    TMP DP  RH WIND       PRES   REMARKS
ROCHESTER      CLOUDY    67  60  78 NE13      29.95R
6HR MIN TEMP:  60; 6HR MAX TEMP:  71;

RED WING       MOSUNNY   73  57  56 N5        29.92F
STANTON        PTSUNNY   72  61  68 NE10      29.93S
DODGE CENTER   SUNNY     72  61  68 N8        29.94R
WINONA         CLOUDY    70  61  73 N8        29.92F
AUSTIN         MOSUNNY   73  61  64 N8        29.92S
PRESTON        CLOUDY    67  60  79 N7        29.94R
$$
ABBREVIATIONS USED IN REMARKS
   TC - TEMPERATURES IN CELSIUS
  WCI - WIND CHILL INDEX
   HX - HEAT INDEX
  VSB - VISIBILITY
$$


USA.gov is the U.S. government's official web portal to all federal, state and local government web resources and services.